Weather reports worldwide

Advertisment
Lecce, Italy (16332): temperature & dewpoint: 15.05.2019 05:00:00 - 21.05.2019 05:00:00 (CEST)Lecce, Italy (16332): wind speed: 15.05.2019 05:00:00 - 21.05.2019 05:00:00 (CEST)Lecce, Italy (16332): wind direction: 15.05.2019 05:00:00 - 21.05.2019 05:00:00 (CEST)Lecce, Italy (16332): reduced air pressure: 15.05.2019 05:00:00 - 21.05.2019 05:00:00 (CEST)Lecce, Italy (16332): visibility: 15.05.2019 05:00:00 - 21.05.2019 05:00:00 (CEST)
Date & Time tt [°C] td [°C] ff [km/h] ff [kn] dd ppp [hPa] vv [km]
21.05.2019 05:00:00 11,6 10,8 4 2 SSE 1014,6 10
21.05.2019 04:00:00 12,0 11,0 5 3 SSW - 10
21.05.2019 03:00:00 13,0 12,0 9 5 SW - 10
21.05.2019 02:00:00 13,0 12,4 8 4 SSW 1014,5 10
21.05.2019 01:00:00 14,0 14,0 5 3 S - 10
21.05.2019 00:00:00 15,0 14,0 8 4 SSE - 10
20.05.2019 23:00:00 15,2 14,4 4 2 N 1014,1 10
20.05.2019 22:00:00 15,0 14,0 15 8 E - 10
20.05.2019 21:00:00 15,0 14,0 9 5 ENE - 10
20.05.2019 20:00:00 15,8 14,3 8 4 S 1012,7 10
20.05.2019 19:00:00 18,0 13,0 16 9 SW - 10
20.05.2019 18:00:00 20,0 13,0 18 10 SW - 10
20.05.2019 17:00:00 20,6 11,2 21 11 SW 1011,9 10
20.05.2019 16:00:00 22,0 11,0 21 11 WSW - 10
20.05.2019 15:00:00 21,0 12,0 15 8 SW - 10
20.05.2019 14:00:00 20,2 11,2 11 6 SW 1012,0 10
20.05.2019 13:00:00 - - - - - - -
20.05.2019 12:00:00 20,0 12,0 18 10 SW - 10
20.05.2019 11:00:00 18,0 11,6 21 11 WSW 1011,8 10
20.05.2019 10:00:00 16,0 12,0 8 4 WSW - 10
20.05.2019 09:00:00 16,0 12,0 9 5 WSW - 10
20.05.2019 08:00:00 15,0 13,7 8 4 SSW 1010,6 10
20.05.2019 07:00:00 13,0 13,0 2 1 - - 10
20.05.2019 06:00:00 13,0 12,0 2 1 - - 10
20.05.2019 05:00:00 13,4 12,1 9 5 SW 1009,9 10
20.05.2019 04:00:00 12,0 12,0 5 3 SSW - 10
20.05.2019 03:00:00 12,0 11,0 5 3 - - 10
20.05.2019 02:00:00 12,4 11,8 5 3 SW 1009,6 10
20.05.2019 01:00:00 15,0 14,0 11 6 WSW - 10
20.05.2019 00:00:00 16,0 14,0 15 8 WSW - 10
19.05.2019 23:00:00 16,2 13,9 15 8 WSW 1009,7 10
19.05.2019 22:00:00 16,0 13,0 16 9 WSW - 10
19.05.2019 21:00:00 16,0 14,0 18 10 SW - 10
19.05.2019 20:00:00 17,0 14,5 15 8 SW 1007,5 10
19.05.2019 19:00:00 18,0 14,0 16 9 SW - 10
19.05.2019 18:00:00 20,0 14,0 24 13 WSW - 10
19.05.2019 17:00:00 20,8 13,7 24 13 WSW 1006,0 10
19.05.2019 16:00:00 21,0 13,0 18 10 SW - 10
19.05.2019 15:00:00 21,0 14,0 18 10 SSW - 10
19.05.2019 14:00:00 20,0 15,2 11 6 SSW 1004,9 10
19.05.2019 13:00:00 17,0 14,0 15 8 SW - 10
19.05.2019 12:00:00 18,0 16,0 13 7 S - 8
19.05.2019 11:00:00 18,0 15,3 18 10 SSE 1004,5 10
19.05.2019 10:00:00 18,0 15,0 21 11 S - 10
19.05.2019 09:00:00 17,0 15,0 15 8 SSW - 10
19.05.2019 08:00:00 15,2 13,9 9 5 S 1005,9 10
19.05.2019 07:00:00 14,0 13,0 8 4 ESE - 10
19.05.2019 06:00:00 14,0 13,0 13 7 SE - 10
19.05.2019 05:00:00 13,8 13,0 9 5 SE 1006,9 10
19.05.2019 04:00:00 14,0 14,0 9 5 SE - 10
19.05.2019 03:00:00 14,0 13,0 15 8 SE - 10
19.05.2019 02:00:00 14,0 13,2 15 8 SE 1008,0 10
19.05.2019 01:00:00 14,0 13,0 11 6 SE - 10
19.05.2019 00:00:00 14,0 13,0 16 9 SE - 10
18.05.2019 23:00:00 14,0 13,4 18 10 SSE 1009,0 10
18.05.2019 22:00:00 14,0 12,0 15 8 SE - 10
18.05.2019 21:00:00 15,0 13,0 21 11 SSE - 10
18.05.2019 20:00:00 15,4 13,4 16 9 S 1008,9 10
18.05.2019 19:00:00 17,0 14,0 22 12 SSE - 10
18.05.2019 18:00:00 17,0 13,0 24 13 S - 10
18.05.2019 17:00:00 17,4 12,7 24 13 S 1009,7 10
18.05.2019 16:00:00 18,0 13,0 24 13 S - 10
18.05.2019 15:00:00 18,0 12,0 31 17 S - 10
18.05.2019 14:00:00 18,8 13,9 29 16 S 1009,6 10
18.05.2019 13:00:00 18,0 13,0 26 14 S - 10
18.05.2019 12:00:00 18,0 13,0 26 14 SSE - 10
18.05.2019 11:00:00 17,2 12,9 18 10 S 1010,0 10
18.05.2019 10:00:00 17,0 13,0 16 9 SSE - 10
18.05.2019 09:00:00 16,0 15,0 15 8 SSE - 10
18.05.2019 08:00:00 13,8 13,0 9 5 SSE 1010,2 10
18.05.2019 07:00:00 12,0 11,0 8 4 ESE - 10
18.05.2019 06:00:00 11,0 10,0 0 0 N - 10
18.05.2019 05:00:00 9,4 8,7 5 3 SE 1010,3 10
18.05.2019 04:00:00 10,0 9,0 0 0 N - 10
18.05.2019 03:00:00 10,0 10,0 5 3 S - 10
18.05.2019 02:00:00 11,0 10,2 8 4 ESE 1010,6 10
18.05.2019 01:00:00 11,0 10,0 5 3 SSE - 10
18.05.2019 00:00:00 11,0 10,0 0 0 N - 10
17.05.2019 23:00:00 12,2 11,4 0 0 N 1010,8 10
17.05.2019 22:00:00 13,0 12,0 0 0 N - 10
17.05.2019 21:00:00 13,0 12,0 5 3 SSE - 10
17.05.2019 20:00:00 15,8 13,3 8 4 E 1010,4 10
17.05.2019 19:00:00 18,0 14,0 8 4 ENE - 10
17.05.2019 18:00:00 18,0 14,0 5 3 - - 10
17.05.2019 17:00:00 17,8 13,9 8 4 NE 1010,5 10
17.05.2019 16:00:00 19,0 14,0 8 4 NNE - 10
17.05.2019 15:00:00 19,0 14,0 11 6 NNE - 10
17.05.2019 14:00:00 17,0 13,5 9 5 NNW 1010,9 10
17.05.2019 13:00:00 17,0 13,0 11 6 N - 10
17.05.2019 12:00:00 18,0 13,0 9 5 N - 10
17.05.2019 11:00:00 17,2 12,7 13 7 N 1011,3 10
17.05.2019 10:00:00 17,0 14,0 15 8 N - 10
17.05.2019 09:00:00 - - - - - - -
17.05.2019 08:00:00 14,2 13,3 9 5 N 1010,8 10
17.05.2019 07:00:00 11,0 11,0 4 2 NNW - 8
17.05.2019 06:00:00 9,0 9,0 4 2 NW - 6
17.05.2019 05:00:00 10,4 9,6 8 4 N 1010,2 8
17.05.2019 04:00:00 10,0 9,0 8 4 NNW - 8
17.05.2019 03:00:00 10,0 9,0 5 3 NNW - 8
17.05.2019 02:00:00 11,2 10,6 4 2 N 1010,4 10
17.05.2019 01:00:00 11,0 10,0 8 4 NNW - 10
17.05.2019 00:00:00 13,0 12,0 5 3 NE - 10
16.05.2019 23:00:00 13,6 12,7 5 3 ENE 1010,6 10
16.05.2019 22:00:00 14,0 13,0 9 5 NE - 10
16.05.2019 21:00:00 14,0 13,0 8 4 NE - 10
16.05.2019 20:00:00 14,0 12,9 8 4 NNE 1009,9 10
16.05.2019 19:00:00 14,0 13,0 9 5 NNE - 10
16.05.2019 18:00:00 13,0 12,0 11 6 W - 10
16.05.2019 17:00:00 13,2 12,4 15 8 N 1009,9 10
16.05.2019 16:00:00 14,0 12,0 13 7 N - 5
16.05.2019 15:00:00 14,0 13,0 8 4 WSW - 10
16.05.2019 14:00:00 14,6 13,0 18 10 SW 1010,2 10
16.05.2019 13:00:00 16,0 12,0 11 6 SE - 8
16.05.2019 12:00:00 16,0 13,0 13 7 ESE - 7
16.05.2019 11:00:00 17,0 13,9 11 6 E 1010,1 10
16.05.2019 10:00:00 16,0 14,0 8 4 E - 10
16.05.2019 09:00:00 13,0 12,0 13 7 ENE - 10
16.05.2019 08:00:00 13,2 12,4 11 6 E 1009,7 7
16.05.2019 07:00:00 10,0 9,0 2 1 ENE - 8
16.05.2019 06:00:00 10,0 9,0 5 3 ESE - 8
16.05.2019 05:00:00 10,0 9,1 2 1 SE 1009,5 10
16.05.2019 04:00:00 11,0 10,0 4 2 SE - 10
16.05.2019 03:00:00 11,0 10,0 4 2 ENE - 10
16.05.2019 02:00:00 11,0 10,1 2 1 ENE 1011,5 10
16.05.2019 01:00:00 11,0 10,0 2 1 S - 10
16.05.2019 00:00:00 11,0 10,0 4 2 ENE - 10
15.05.2019 23:00:00 11,2 10,3 4 2 WNW 1011,5 10
15.05.2019 22:00:00 12,0 11,0 4 2 NE - 10
15.05.2019 21:00:00 12,0 11,0 5 3 E - 10
15.05.2019 20:00:00 13,4 12,8 8 4 E 1011,7 10
15.05.2019 19:00:00 14,0 13,0 8 4 ESE - 7
15.05.2019 18:00:00 14,0 13,0 5 3 E - 4,0
15.05.2019 17:00:00 14,8 13,0 9 5 NNE 1011,6 10
15.05.2019 16:00:00 16,0 14,0 11 6 E - 10
15.05.2019 15:00:00 15,0 14,0 13 7 ENE - 10
15.05.2019 14:00:00 12,8 12,2 13 7 ENE 1011,7 4,0
15.05.2019 13:00:00 17,0 12,0 13 7 NNE - 3,0
15.05.2019 12:00:00 16,0 11,0 2 1 - - 10
15.05.2019 11:00:00 15,6 12,0 4 2 N 1011,6 10
15.05.2019 10:00:00 15,0 12,0 9 5 N - 10
15.05.2019 09:00:00 13,0 11,0 11 6 N - 10
15.05.2019 08:00:00 12,2 10,3 13 7 NNW 1011,2 10
15.05.2019 07:00:00 11,0 10,0 5 3 NW - 10
15.05.2019 06:00:00 11,0 10,0 5 3 - - 10
15.05.2019 05:00:00 11,2 10,3 8 4 NW 1010,9 10

tt = temperature
td = dewpoint
ff = wind speed
dd = wind direction
ppp = reduced air pressure
vv = visibility

Next stations